Find Starlink 4168

NORAD ID: 52845 Int'l Des: 2022-062 Owner: SPXS Country: US Constellation: starlink operational
LEOCIRCULAR

当前视图

正在加载3D地球...

About Starlink 4168

Starlink 4168 (NORAD 52845) is a starlink constellation satellite (v1.5) launched Jun 17, 2022 by SPXS of US. It operates in LEO, CIRCULAR orbit with a mass of 297.00 kg.

即将过境

Passes for default location (London). Set your location on the main map for personalized predictions.

高度历史

Loading altitude history...

两行轨道根数

1 52845U 22062R 26263.56849239 -.00000125 00000-0 77275-5 0 9993
2 52845 53.1601 228.5098 0001348 86.4760 273.6395 15.31700100235354
Epoch: Sep 20, 2026 • Age: 7 hours

当前状态

高度 473.2 km
远地点 / 近地点 N/A
速度 7.63 km/s
星下点 37.91°N, 64.88°E
发射日期 Jun 17, 2022
运行时间 4.2 years
类型 internet

技术详情

分类 Payload
质量 297.00 kg
干质量 275.00 kg
长度 0.20 m
跨度 9.00 m
形状 ? Box + pan
制造商 SPXS
平台类型 Starlink
阶段状态 In Orbit
所有者/国家 SPXS/US

Most Searched